Zurück zum Katalog

ONEWEB-0013

AktivKommunikationPO
NORAD 45131·PAYLOAD·🇬🇧 United Kingdom

Gestartet Feb 6, 2020 von Baikonur Cosmodrome

Loading…

Nächste Überflüge (nächste 24 Stunden)

TLE

AktuellSource: CelesTrak SupGP

Epoche: Sep 14, 2026, 19:40 UTC

1 45131C 20008A   26257.81963376  .00001657  00000+0  48160-2 0  2575
2 45131  87.8565  34.7302 0002636 107.7977 345.9195 13.09462083    12

Verfolge ONEWEB-0013 in Echtzeit mit AllMySat

Download on the App Store